RH
27 26 24 21 19 17 13 10 8 6 5 5 6 10 11 13 12 13 11 9 8 6 4 4 3 3 18 38 41 43 57 72 74 90 99 98 81 57 43 30 24 24 22
29 28 26 24 21 17 13 10 7 6 6 6 7 10 13 14 16 16 15 13 10 9 8 6 4 3 10 31 41 42 50 59 75 80 98 99 93 68 48 35 27 25 23
29 29 28 25 21 17 13 10 8 7 6 6 8 11 13 15 15 18 19 18 16 13 11 10 6 4 5 25 45 47 49 62 59 80 81 98 98 77 55 37 29 28 25
30 30 30 25 21 17 13 11 9 8 6 6 8 12 14 16 17 16 15 17 17 15 14 13 10 6 5 17 46 51 51 78 61 73 77 82 92 86 62 44 33 32 27
32 31 30 26 23 19 15 12 10 8 7 6 7 8 11 16 17 18 20 18 18 19 17 16 13 9 7 11 40 51 63 48 67 57 73 88 94 91 72 55 35 30 28
33 31 29 28 26 21 16 13 11 8 7 6 7 8 10 16 23 25 24 24 24 23 23 22 19 12 11 9 38 61 56 68 70 57 74 82 93 89 78 53 39 32 30
34 33 32 31 29 24 18 14 11 8 6 7 7 9 12 21 31 34 34 36 33 32 29 31 27 18 14 12 41 61 57 76 56 60 72 77 89 92 84 61 45 36 33
37 36 35 34 32 27 20 15 11 7 7 6 7 11 14 29 37 39 41 42 43 42 40 40 36 24 21 20 39 59 60 74 75 82 81 74 84 89 86 69 49 43 38
40 39 38 37 34 30 22 15 10 8 7 7 8 12 18 39 47 50 53 52 52 53 52 50 43 30 25 21 43 59 60 68 65 79 65 80 85 88 89 80 52 42 36
45 43 41 40 37 33 24 16 11 8 7 7 10 14 25 49 56 60 61 62 66 68 64 59 48 36 30 24 40 74 73 79 58 55 60 60 79 92 92 88 61 45 33
50 46 44 42 39 35 26 17 11 8 8 7 11 17 34 59 67 66 69 73 73 72 69 64 52 41 33 26 48 58 67 59 84 83 75 82 93 98 94 96 72 49 35
54 48 47 45 42 38 28 19 12 9 9 7 12 21 45 69 72 78 80 76 78 73 69 63 54 43 34 28 64 87 95 86 78 69 81 89 95 97 98 98 83 52 35
56 52 50 48 45 41 31 21 13 10 8 7 13 23 53 75 82 86 88 90 85 79 68 61 51 43 37 33 69 86 82 97 87 85 95 99 98 96 98 97 85 54 38
58 56 53 51 48 44 35 24 15 11 8 8 14 25 60 81 90 94 96 84 86 85 75 62 55 49 41 54 78 94 89 81 91 96 83 89 91 97 94 96 87 61 50
67 62 57 54 52 48 40 27 18 13 9 7 14 26 60 87 96 97 97 90 86 78 74 65 56 47 47 73 90 98 99 98 89 80 82 84 86 97 94 96 94 75 45
72 66 61 57 57 52 45 30 22 15 10 7 13 26 54 82 97 97 96 83 77 74 68 64 58 45 57 85 94 99 97 76 81 81 81 73 82 94 94 96 98 71 45
78 71 64 60 60 57 50 35 26 19 12 8 11 24 46 82 97 97 87 89 98 92 89 70 69 73 91 93 96 80 73 84 89 96 80 78 87 91 95 98 97 84 65
76 72 67 65 62 62 55 41 29 23 15 10 8 21 36 66 92 98 97 98 97 97 95 83 75 89 90 97 96 98 98 99 95 84 82 92 96 98 98 98 97 87 72
80 75 70 69 65 64 59 48 34 27 21 14 7 16 27 50 77 90 97 97 97 97 97 97 80 85 98 98 100 96 97 99 95 89 94 95 95 98 98 98 98 98 92
81 79 74 71 68 64 63 55 40 31 25 17 10 9 21 43 54 69 93 97 97 98 97 97 86 75 88 98 99 88 97 89 97 92 94 95 91 96 98 97 99 97 98
90 86 80 74 71 65 67 61 48 37 28 22 16 8 14 28 47 56 68 88 89 97 97 97 98 93 98 99 93 99 97 90 88 94 93 85 93 95 98 98 98 97 98
94 90 82 76 74 69 71 66 56 42 32 26 21 15 11 16 30 44 56 64 76 84 92 96 97 97 97 98 98 90 72 70 94 97 88 89 93 95 98 99 98 98 98
97 91 83 79 77 72 74 72 64 49 39 30 25 20 17 12 16 35 46 56 61 68 79 89 92 96 97 98 97 95 79 75 90 98 95 93 97 93 97 98 99 99 98
97 94 87 82 80 76 79 77 71 57 47 36 29 23 19 18 14 17 29 46 50 55 56 67 82 87 85 83 90 90 87 87 85 83 86 92 89 93 93 97 99 98 98
97 97 95 87 83 82 84 83 77 64 54 45 36 29 23 19 19 19 17 23 39 47 53 54 61 65 72 77 81 83 86 93 86 82 88 82 93 94 96 98 99 98 98
97 97 96 90 84 83 89 86 81 69 60 52 42 34 28 25 23 21 21 19 23 27 34 41 41 44 48 49 61 64 71 82 91 87 83 85 95 98 97 98 98 99 98